Regional Weather Roundup
Issued by NWS

Home | Current Version | Previous Version | Text Only | Print | Product List | Glossary On
Versions: 1 2 3 4 5 6 7 8 9 10 11 12 13 14 15 16 17 18 19 20 21 22 23 24 25 26 27 28 29 30 31 32 33 34 35 36 37 38 39 40 41 42 43 44 45 46 47 48 49 50
000
ASUS43 KMKX 241021
RWRWI

WISCONSIN REGIONAL WEATHER ROUNDUP
NATIONAL WEATHER SERVICE MILWAUKEE/SULLIVAN WI
500 AM CDT THU APR 24 2014

NOTE: "FAIR" INDICATES FEW OR NO CLOUDS BELOW 12,000 FEET WITH NO
SIGNIFICANT WEATHER AND/OR OBSTRUCTIONS TO VISIBILITY.

WIZ001-002-006>008-014>016-023>028-241100-
NORTHWEST WISCONSIN

CITY           SKY/WX    TMP DP  RH WIND       PRES   REMARKS
SUPERIOR ARPT  CLOUDY    35  35  99 NE9       29.98F FOG     WCI  28
ASHLAND        CLOUDY    37  36  96 E6        30.03F WCI  32
HAYWARD        CLOUDY    37  34  89 SE10G20   29.97F WCI  30
SIREN          LGT RAIN  40  38  93 SE9G18    29.92F WCI  33
RICE LAKE      LGT RAIN  37  36  93 E13G22    29.94F WCI  29
LADYSMITH      LGT RAIN  36  32  85 E8        30.00S WCI  30
EAU CLAIRE     CLOUDY    38  36  92 E14       29.92F WCI  30
MENOMONIE      MIX PCPN  40  37  89 E15       29.91F WCI  31
NEW RICHMOND   CLOUDY    40  39  96 E13       29.87F WCI  32
OSCEOLA        CLOUDY    41  40  93 E14G21    29.90F
$$

WIZ003>005-009-010-017-018-241100-
NORTH CENTRAL WISCONSIN

CITY           SKY/WX    TMP DP  RH WIND       PRES   REMARKS
WOODRUFF       LGT SNOW  35  32  90 SE8       30.03F WCI  29
RHINELANDER    FLURRIES  33  31  92 E13       30.04F WCI  24
EAGLE RIVER    LGT SNOW  34  29  80 SE6       30.05F WCI  29
LAND O LAKES   CLOUDY    39  24  55 S6        30.05F WCI  35
PHILLIPS       FLURRIES  33  32  96 E6        30.00F WCI  28
TOMAHAWK       CLOUDY    33  31  94 E5        30.01F WCI  28
MEDFORD        CLOUDY    36  20  53 SE9       29.99S WCI  29
MERRILL        CLOUDY    35  29  78 E3        30.01F
$$

WIZ029-030-035-036-043>047-241100-
CENTRAL WISCONSIN

CITY           SKY/WX    TMP DP  RH WIND       PRES   REMARKS
WAUSAU         CLOUDY    39  18  42 SE9       30.00F WCI  33
MOSINEE        CLOUDY    37  14  38 E8        30.02F WCI  31
MARSHFIELD     MIX PCPN  35  29  78 E9        29.99S WCI  28
STEVENS POINT  LGT RAIN  36  20  51 SE6       30.03S WCI  31
WAUPACA        CLOUDY    43  19  39 SE7       30.05F
WAUTOMA        LGT RAIN  35  32  89 E3        30.04F
WISC RAPIDS    LGT RAIN  35  30  82 E7        30.02F WCI  29
CAMP DOUGLAS   LGT RAIN  37  37 100 E13       29.98F WCI  28
$$

WIZ011>013-019>022-031-037>040-048>050-241100-
NORTHEAST WISCONSIN

CITY           SKY/WX    TMP DP  RH WIND       PRES   REMARKS
ANTIGO         CLOUDY    37  19  48 SE7       30.03F WCI  31
STURGEON BAY   CLOUDY    37  23  56 E6        30.10F WCI  33
GREEN BAY      CLOUDY    40  28  62 CALM      30.08F
MANITOWOC      CLOUDY    39  27  62 E5        30.09F
APPLETON       CLOUDY    39  21  48 SE7       30.05F WCI  34
CLINTONVILLE   CLOUDY    41  23  48 E6        30.06F
OSHKOSH        CLOUDY    39  23  52 SE8       30.05F WCI  33
$$

WIZ032>034-041-042-053>061-241100-
SOUTHWEST WISCONSIN

CITY           SKY/WX    TMP DP  RH WIND       PRES   REMARKS
LA CROSSE      LGT RAIN  40  36  86 S8        29.90F WCI  34
SPARTA         LGT RAIN  38  36  94 E14       29.95F WCI  29
VIROQUA        CLOUDY    36  36 100 E20       29.90F WCI  25
BOSCOBEL       CLOUDY    40  36  86 NE6       29.94F
PRAIRIE DU CHI DRIZZLE   41  35  80 E12G17    29.90S
PLATTEVILLE    CLOUDY    40  32  74 E20G25    29.92F WCI  30
$$

WIZ056-057-062-063-064-067-068-241100-
SOUTH CENTRAL WISCONSIN

CITY           SKY/WX    TMP DP  RH WIND       PRES   REMARKS
BARABOO/DELLS  CLOUDY    35  32  90 E3        30.00R
LONE ROCK      LGT RAIN  38  34  85 E14       29.96F WCI  30
WATERTOWN      LGT RAIN  35  31  87 E7        30.03F WCI  29
MADISON        LGT RAIN  36  31  82 SE10      30.01F WCI  28
MIDDLETON      CLOUDY    38  32  79 E12       29.99F WCI  30
MONROE         CLOUDY    37  36  95 E12       29.96F WCI  29
JANESVILLE     CLOUDY    37  30  75 E15       30.00F WCI  28
$$

WIZ051-052-058>065-066-070>072-241100-
SOUTHEAST WISCONSIN

CITY           SKY/WX    TMP DP  RH WIND       PRES   REMARKS
MILWAUKEE      LGT RAIN  39  30  70 NE5       30.08F
WAUKESHA       LGT RAIN  34  27  75 E6        30.06F WCI  29
MILWAUKEE/TIMM DRIZZLE   36  28  75 NE5       30.08F WCI  32
RACINE         LGT RAIN  37  34  89 E5        30.08F WCI  33
BURLINGTON     MIX PCPN  34  31  90 E9        30.04F WCI  27
KENOSHA        LGT RAIN  37  34  89 NE7       30.07F WCI  32
FOND DU LAC    LGT RAIN  39  29  67 E10       30.05F WCI  32
SHEBOYGAN      CLOUDY    38  28  67 SW7       30.09F WCI  33
WEST BEND      RAIN      36  27  69 E3        30.06F
JUNEAU         RAIN      35  29  80 E9        30.04F WCI  28
$$

LSZ147-162-241100-
LAKE SUPERIOR

STATION/POSITION TIME  TEMP    WIND        PRES    WAVE
                       AIR SEA DIR/SP/G            HT/PER
                 (UTC) (F)     (DEG/KT/KT) (MB)    (FT/S)
DEVILS ISLAND    1000   38     140/  5/  7 1018.2F
PORT WING        0940   34      30/  8/ 10 1015.9F
SAXON HARBOR     0940             CALM     1017.3F
$$

LMZ867-665-643>646-241100-
LAKE MICHIGAN

STATION/POSITION TIME  TEMP    WIND        PRES    WAVE
                       AIR SEA DIR/SP/G            HT/PER
                 (UTC) (F)     (DEG/KT/KT) (MB)    (FT/S)
NORTHPORT PIER   0900   35     130/  5/  5 1020.3R
SISTER BAY       0923   37     120/ 10/ 14   N/A
KEWAUNEE LAKESHO 1000   38      50/  4/  4 1019.8F
SHEBOYGAN LAKESH 1000   41     230/  3/  4 1019.7F
PORT WASHINGTON  0900   41     290/  2/  4 1020.0F
MILWAUKEE LAKESH 1000   38      40/  9/ 10   N/A
KENOSHA   LAKESH 1000   40      20/  4/  6   N/A
$$

TC  - TEMPERATURE IN CELSIUS
VSB - VISIBILITY IN STATUTE MILES
WCI - WIND CHILL INDEX
HX  - HEAT INDEX




USA.gov is the U.S. government's official web portal to all federal, state and local government web resources and services.